TELSTAR 19V

Last updated on Wed Jul 09 2025 00:02:46 GMT+0000 (Coordinated Universal Time)

1 43562U 18059A 25189.53782131 -.00000264 00000+0 00000+0 0 9999 2 43562 0.0345 167.0812 0003139 312.9948 297.2720 1.00270920 25693
UTC large
Height (km)
Speed (km/s)
/
Latitude / Longitude
Inclination (degrees)
Orbital Period (minutes)
Azimuth
Elevation
Range (km)
Doppler Factor

Next 0 passes for location: London (51.5072 / 0.1276)

Sorry there are no passes over London.